Hourly Weather Barrancas

Today, 28 October, Wednesday

Time Temperature Precipitation Wind Pressure Humidity
00:00 +23°C° 0 mm 0 mps 743 mmHg 88%
01:00 +23°C° 0 mm 0 mps 743 mmHg 88%
02:00 +23°C° 0 mm 0 mps 743 mmHg 89%
03:00 +23°C° 0 mm 0 mps 743 mmHg 90%
04:00 +22°C° 0 mm 0 mps 742 mmHg 92%
05:00 +23°C° 0 mm 0 mps 743 mmHg 90%
06:00 +24°C° 0 mm 0 mps 743 mmHg 89%
07:00 +25°C° 0 mm 0 mps 744 mmHg 87%
08:00 +29°C° 0 mm 1 mps 744 mmHg 79%
09:00 +31°C° 0 mm 1 mps 744 mmHg 72%
10:00 +33°C° 0 mm 1 mps 745 mmHg 64%
11:00 +34°C° 0.2 mm 2 mps 744 mmHg 65%
12:00 +34°C° 0.2 mm 2 mps 743 mmHg 66%
13:00 +34°C° 0.2 mm 2 mps 742 mmHg 68%
14:00 +32°C° 0.8 mm 2 mps 741 mmHg 74%
15:00 +31°C° 0.8 mm 2 mps 741 mmHg 79%
16:00 +30°C° 0.8 mm 2 mps 740 mmHg 85%
17:00 +29°C° 1 mm 1 mps 741 mmHg 88%
18:00 +28°C° 1 mm 1 mps 742 mmHg 91%
19:00 +26°C° 1 mm 1 mps 742 mmHg 94%
20:00 +26°C° 0.1 mm 1 mps 743 mmHg 94%
21:00 +26°C° 0.1 mm 1 mps 743 mmHg 94%
22:00 +26°C° 0.1 mm 1 mps 744 mmHg 95%
23:00 +23°C° 0 mm 0 mps 743 mmHg 95%

Tomorrow, 29 October, Thursday

Time Temperature Precipitation Wind Pressure Humidity
00:00 +23°C° 0 mm 0 mps 743 mmHg 95%
01:00 +23°C° 0 mm 0 mps 743 mmHg 95%
02:00 +23°C° 0 mm 0 mps 743 mmHg 95%
03:00 +23°C° 0 mm 0 mps 742 mmHg 95%
04:00 +22°C° 0 mm 0 mps 742 mmHg 95%
05:00 +25°C° 0.1 mm 1 mps 743 mmHg 94%
06:00 +26°C° 0.1 mm 1 mps 743 mmHg 93%
07:00 +26°C° 0.1 mm 1 mps 744 mmHg 92%
08:00 +28°C° 0.3 mm 1 mps 744 mmHg 87%
09:00 +29°C° 0.3 mm 1 mps 745 mmHg 81%
10:00 +31°C° 0.3 mm 1 mps 745 mmHg 76%
11:00 +31°C° 0.7 mm 1 mps 744 mmHg 76%
12:00 +31°C° 0.7 mm 1 mps 743 mmHg 75%
13:00 +32°C° 0.7 mm 1 mps 743 mmHg 75%
14:00 +31°C° 1.4 mm 1 mps 742 mmHg 81%
15:00 +30°C° 1.4 mm 1 mps 742 mmHg 86%
16:00 +29°C° 1.4 mm 1 mps 742 mmHg 91%
17:00 +28°C° 0.1 mm 1 mps 742 mmHg 93%
18:00 +25°C° 0.1 mm 0 mps 743 mmHg 94%
19:00 +24°C° 0.1 mm 0 mps 743 mmHg 96%
20:00 +24°C° 0 mm 0 mps 744 mmHg 96%
21:00 +24°C° 0 mm 0 mps 744 mmHg 96%
22:00 +23°C° 0 mm 0 mps 744 mmHg 96%
23:00 +23°C° 0 mm 0 mps 744 mmHg 96%

Day after tomorrow, 30 October, Friday

Time Temperature Precipitation Wind Pressure Humidity
00:00 +23°C° 0 mm 0 mps 744 mmHg 96%
01:00 +23°C° 0 mm 0 mps 743 mmHg 96%
02:00 +24°C° 0 mm 1 mps 743 mmHg 96%
03:00 +24°C° 0 mm 1 mps 744 mmHg 96%
04:00 +24°C° 0 mm 1 mps 744 mmHg 96%
05:00 +25°C° 0 mm 1 mps 744 mmHg 95%
06:00 +25°C° 0 mm 1 mps 744 mmHg 94%
07:00 +26°C° 0 mm 1 mps 745 mmHg 93%
08:00 +28°C° 0 mm 1 mps 745 mmHg 83%
09:00 +30°C° 0 mm 1 mps 746 mmHg 73%
10:00 +32°C° 0 mm 1 mps 746 mmHg 64%
11:00 +32°C° 0.3 mm 1 mps 745 mmHg 65%
12:00 +33°C° 0.3 mm 1 mps 744 mmHg 67%
13:00 +33°C° 0.3 mm 1 mps 743 mmHg 68%
14:00 +31°C° 1.1 mm 1 mps 743 mmHg 75%
15:00 +30°C° 1.1 mm 1 mps 743 mmHg 83%
16:00 +29°C° 1.1 mm 1 mps 743 mmHg 90%
17:00 +28°C° 0.2 mm 1 mps 743 mmHg 92%
18:00 +27°C° 0.2 mm 1 mps 744 mmHg 94%
19:00 +24°C° 0.2 mm 0 mps 744 mmHg 96%
20:00 +23°C° 0 mm 0 mps 744 mmHg 96%
21:00 +23°C° 0 mm 0 mps 745 mmHg 96%
22:00 +23°C° 0 mm 0 mps 745 mmHg 96%
23:00 +23°C° 0 mm 0 mps 745 mmHg 96%

31 October, Saturday

Time Temperature Precipitation Wind Pressure Humidity
00:00 +23°C° 0 mm 0 mps 744 mmHg 96%
01:00 +22°C° 0 mm 0 mps 744 mmHg 96%
02:00 +22°C° 0 mm 0 mps 744 mmHg 96%
03:00 +24°C° 0 mm 1 mps 744 mmHg 96%
04:00 +24°C° 0 mm 1 mps 744 mmHg 95%
05:00 +25°C° 0 mm 1 mps 745 mmHg 94%
06:00 +25°C° 0 mm 1 mps 745 mmHg 93%
07:00 +26°C° 0 mm 1 mps 745 mmHg 92%
08:00 +26°C° 0 mm 0 mps 745 mmHg 82%
09:00 +28°C° 0 mm 0 mps 745 mmHg 73%
10:00 +31°C° 0 mm 0 mps 745 mmHg 64%
11:00 +32°C° 0.5 mm 1 mps 745 mmHg 68%
12:00 +32°C° 0.5 mm 1 mps 744 mmHg 73%
13:00 +31°C° 0.5 mm 1 mps 743 mmHg 77%
14:00 +30°C° 1 mm 1 mps 743 mmHg 82%
15:00 +29°C° 1 mm 1 mps 743 mmHg 87%
16:00 +28°C° 1 mm 1 mps 743 mmHg 91%
17:00 +28°C° 1.5 mm 1 mps 743 mmHg 92%
18:00 +27°C° 1.5 mm 1 mps 744 mmHg 94%
19:00 +26°C° 1.5 mm 1 mps 744 mmHg 95%
20:00 +24°C° 0.6 mm 0 mps 744 mmHg 95%
21:00 +23°C° 0.6 mm 0 mps 745 mmHg 95%
22:00 +23°C° 0.6 mm 0 mps 745 mmHg 95%
23:00 +23°C° 0 mm 0 mps 744 mmHg 95%

1 November, Sunday

Time Temperature Precipitation Wind Pressure Humidity
00:00 +25°C° 0 mm 1 mps 744 mmHg 96%
01:00 +24°C° 0 mm 1 mps 744 mmHg 96%
02:00 +24°C° 0 mm 1 mps 744 mmHg 96%
03:00 +24°C° 0 mm 1 mps 744 mmHg 96%
04:00 +24°C° 0 mm 1 mps 744 mmHg 95%
05:00 +24°C° 0 mm 1 mps 744 mmHg 94%
06:00 +25°C° 0 mm 1 mps 744 mmHg 93%
07:00 +25°C° 0 mm 1 mps 745 mmHg 92%
08:00 +28°C° 0 mm 1 mps 745 mmHg 83%
09:00 +28°C° 0 mm 0 mps 745 mmHg 74%
10:00 +30°C° 0 mm 0 mps 745 mmHg 65%
11:00 +30°C° 0.6 mm 0 mps 744 mmHg 70%
12:00 +31°C° 0.6 mm 1 mps 744 mmHg 75%
13:00 +31°C° 0.6 mm 1 mps 743 mmHg 80%
14:00 +30°C° 1.6 mm 1 mps 743 mmHg 84%
15:00 +30°C° 1.6 mm 1 mps 742 mmHg 88%
16:00 +29°C° 1.6 mm 1 mps 742 mmHg 92%
17:00 +28°C° 1.3 mm 1 mps 743 mmHg 93%
18:00 +25°C° 1.3 mm 0 mps 743 mmHg 93%
19:00 +24°C° 1.3 mm 0 mps 744 mmHg 94%
20:00 +23°C° 0.2 mm 0 mps 744 mmHg 94%
21:00 +23°C° 0.2 mm 0 mps 744 mmHg 94%
22:00 +23°C° 0.2 mm 0 mps 744 mmHg 94%
23:00 +22°C° 0 mm 0 mps 744 mmHg 94%

2 November, Monday

Time Temperature Precipitation Wind Pressure Humidity
00:00 +22°C° 0 mm 0 mps 744 mmHg 94%
01:00 +22°C° 0 mm 0 mps 743 mmHg 94%
02:00 +24°C° 0 mm 1 mps 743 mmHg 95%
03:00 +24°C° 0 mm 1 mps 743 mmHg 95%
04:00 +24°C° 0 mm 1 mps 743 mmHg 95%
05:00 +24°C° 0 mm 1 mps 744 mmHg 95%
06:00 +25°C° 0 mm 1 mps 744 mmHg 95%
07:00 +25°C° 0 mm 2 mps 744 mmHg 94%
08:00 +27°C° 0 mm 2 mps 745 mmHg 87%
09:00 +28°C° 0 mm 2 mps 745 mmHg 81%
10:00 +30°C° 0 mm 2 mps 745 mmHg 74%
11:00 +30°C° 0.4 mm 2 mps 744 mmHg 75%
12:00 +30°C° 0.4 mm 2 mps 744 mmHg 76%
13:00 +31°C° 0.4 mm 2 mps 743 mmHg 78%
14:00 +30°C° 1.1 mm 1 mps 742 mmHg 82%
15:00 +29°C° 1.1 mm 1 mps 742 mmHg 87%
16:00 +28°C° 1.1 mm 1 mps 742 mmHg 92%
17:00 +27°C° 0.9 mm 1 mps 742 mmHg 93%
18:00 +25°C° 0.9 mm 0 mps 743 mmHg 94%
19:00 +24°C° 0.9 mm 0 mps 743 mmHg 95%
20:00 +23°C° 0.5 mm 0 mps 743 mmHg 95%
21:00 +23°C° 0.5 mm 0 mps 744 mmHg 95%
22:00 +23°C° 0.5 mm 0 mps 744 mmHg 95%
23:00 +23°C° 0.4 mm 0 mps 744 mmHg 95%
Show more